FW7705 Weather Reports


time (UTC)temp
C
wind
direction
speed
KPH
gust
KPH
rain 1hr
cm
rain 24hr
cm
rain mn
cm
humidity
%
barometer
mb
20260504081800 5 124 0.0 0.0 0.00 0.00 0.00 67 1009.7
20260504081256 5 140 1.6 1.6 0.00 0.00 0.00 67 1009.9
20260504080753 5 128 1.6 1.6 0.00 0.00 0.00 67 1010.0
20260504080249 5 136 1.6 1.6 0.00 0.00 0.00 69 1009.8
20260504070217 5 136 1.6 1.6 0.00 0.00 0.00 65 1010.0
20260504060137 6 133 1.6 1.6 0.00 0.00 0.00 61 1010.1
20260504050606 7 113 0.0 1.6 0.00 0.00 0.00 59 1010.1
20260504045559 6 133 1.6 3.2 0.00 0.00 0.00 62 1010.1
20260504045054 6 136 0.0 0.0 0.00 0.00 0.00 63 1010.0
20260504044552 6 136 0.0 0.0 0.00 0.00 0.00 63 1010.3
20260504044049 6 136 1.6 1.6 0.00 0.00 0.00 64 1010.2
20260504043546 7 136 0.0 0.0 0.00 0.00 0.00 62 1010.2
20260504043043 7 136 0.0 1.6 0.00 0.00 0.00 61 1010.2
20260504042540 7 136 1.6 3.2 0.00 0.00 0.00 62 1010.1
20260504042037 7 137 0.0 0.0 0.00 0.00 0.00 61 1010.3
20260504041533 8 136 0.0 0.0 0.00 0.00 0.00 60 1010.3
20260504041029 8 137 0.0 0.0 0.00 0.00 0.00 60 1010.1
20260504040527 8 137 0.0 0.0 0.00 0.00 0.00 58 1010.3
20260504040024 8 137 0.0 0.0 0.00 0.00 0.00 55 1010.2
20260504035521 8 137 0.0 1.6 0.00 0.00 0.00 57 1010.3
20260504035017 9 137 1.6 1.6 0.00 0.00 0.00 55 1010.3
20260504034515 9 145 3.2 3.2 0.00 0.00 0.00 56 1010.2
20260504034011 10 155 1.6 1.6 0.00 0.00 0.00 53 1010.1
20260504033509 10 171 1.6 1.6 0.00 0.00 0.00 50 1010.2
20260504033006 10 171 1.6 1.6 0.00 0.00 0.00 49 1010.2
20260504032503 10 235 0.0 0.0 0.00 0.00 0.00 49 1010.2
20260504032000 10 235 1.6 1.6 0.00 0.00 0.00 51 1010.5
20260504031456 10 235 1.6 3.2 0.00 0.00 0.00 48 1010.3
20260504030953 10 235 1.6 1.6 0.00 0.00 0.00 49 1010.3
20260504030451 11 191 1.6 1.6 0.00 0.00 0.00 49 1010.2
20260504025946 11 195 3.2 3.2 0.00 0.00 0.00 44 1010.4
20260504025443 10 213 3.2 3.2 0.00 0.00 0.00 45 1010.6
20260504024940 11 229 3.2 3.2 0.00 0.00 0.00 45 1010.4
20260504024437 11 288 6.4 6.4 0.00 0.00 0.00 45 1010.5
20260504023934 10 250 6.4 9.7 0.00 0.00 0.00 45 1010.8
20260504023431 10 277 4.8 6.4 0.00 0.00 0.00 47 1010.4
20260504022926 10 261 1.6 3.2 0.00 0.00 0.00 48 1010.8
20260504022423 10 341 4.8 4.8 0.00 0.00 0.00 49 1010.6
20260504021920 10 299 3.2 4.8 0.00 0.00 0.00 49 1010.8
20260504021417 10 272 6.4 6.4 0.00 0.00 0.00 48 1010.8
20260504020914 10 307 9.7 11.3 0.00 0.00 0.00 48 1010.9
20260504020411 10 327 4.8 6.4 0.00 0.00 0.00 48 1011.0
20260504015907 10 290 11.3 14.5 0.00 0.00 0.00 47 1010.7
20260504015403 11 294 6.4 9.7 0.00 0.00 0.00 47 1010.9
20260504014859 11 319 14.5 17.7 0.00 0.00 0.00 46 1011.0
20260504014355 10 275 6.4 12.9 0.00 0.00 0.00 47 1010.9
20260504013853 10 294 8.0 14.5 0.00 0.00 0.00 46 1010.7
20260504013351 10 334 3.2 4.8 0.00 0.00 0.00 48 1010.6
20260504012847 10 355 8.0 12.9 0.00 0.00 0.00 48 1010.7
20260504012345 10 285 3.2 3.2 0.00 0.00 0.00 48 1010.7
20260504011842 10 4 4.8 4.8 0.00 0.00 0.00 48 1010.6
20260504011339 10 302 4.8 6.4 0.00 0.00 0.00 48 1010.7
20260504010835 10 261 6.4 6.4 0.00 0.00 0.00 49 1010.9
20260504010330 10 280 14.5 20.9 0.00 0.00 0.00 49 1010.6
20260504005827 10 325 1.6 3.2 0.00 0.00 0.00 50 1010.5
20260504005324 10 20 0.0 1.6 0.00 0.00 0.00 50 1010.4
20260504004822 10 341 6.4 9.7 0.00 0.00 0.00 48 1010.4
20260504004319 10 1 3.2 3.2 0.00 0.00 0.00 49 1010.4
20260504003815 10 305 4.8 6.4 0.00 0.00 0.00 47 1010.4
20260504003312 11 307 6.4 11.3 0.00 0.00 0.00 47 1010.4
20260504002809 11 348 17.7 25.7 0.00 0.00 0.00 45 1010.2
20260504002306 11 328 14.5 16.1 0.00 0.00 0.00 46 1010.0
20260504001804 11 325 9.7 14.5 0.00 0.00 0.00 45 1010.2
20260504001300 10 337 8.0 11.3 0.00 0.00 0.00 46 1010.2
20260504000757 10 272 3.2 4.8 0.00 0.00 0.00 47 1010.2
20260504000254 10 149 0.0 0.0 0.00 0.00 0.00 49 1009.6
20260503235752 10 124 0.0 0.0 0.00 0.00 0.00 49 1009.8
20260503235249 10 129 0.0 1.6 0.00 0.00 0.00 51 1009.6
20260503234747 10 147 0.0 0.0 0.00 0.00 0.00 51 1009.8
20260503234245 10 143 0.0 0.0 0.00 0.00 0.00 51 1009.7
20260503233742 10 143 1.6 1.6 0.00 0.00 0.00 47 1009.6
20260503233238 11 143 0.0 0.0 0.00 0.00 0.00 46 1009.4
20260503232734 11 154 1.6 1.6 0.00 0.00 0.00 44 1009.4
20260503232232 11 208 4.8 4.8 0.00 0.00 0.00 41 1009.3
20260503231730 12 184 1.6 3.2 0.00 0.00 0.00 41 1009.4
20260503231226 12 231 3.2 4.8 0.00 0.00 0.00 41 1009.4
20260503230722 12 227 4.8 4.8 0.00 0.00 0.00 40 1009.5
20260503230220 11 270 6.4 6.4 0.00 0.00 0.00 40 1009.1
20260503225717 11 223 6.4 6.4 0.00 0.00 0.00 41 1009.3
20260503225217 11 267 3.2 3.2 0.00 0.00 0.00 41 1009.5
20260503224715 11 251 8.0 11.3 0.00 0.00 0.00 41 1009.4
20260503224212 11 247 4.8 4.8 0.00 0.00 0.00 44 1009.7
20260503223710 11 273 4.8 6.4 0.00 0.00 0.00 41 1009.3
20260503223207 12 290 4.8 6.4 0.00 0.00 0.00 41 1009.4
20260503222703 12 296 3.2 3.2 0.00 0.00 0.00 41 1009.5
20260503222201 12 297 6.4 9.7 0.00 0.00 0.00 42 1009.4
20260503221700 12 198 4.8 4.8 0.00 0.00 0.00 41 1009.6
20260503221156 12 314 6.4 6.4 0.00 0.00 0.00 40 1009.7
20260503220653 12 353 3.2 3.2 0.00 0.00 0.00 40 1009.5
20260503220150 12 280 6.4 9.7 0.00 0.00 0.00 39 1009.8
20260503215647 12 271 6.4 9.7 0.00 0.00 0.00 42 1009.6
20260503215143 12 283 6.4 9.7 0.00 0.00 0.00 39 1009.9
20260503214642 12 311 12.9 14.5 0.00 0.00 0.00 41 1009.8
20260503214138 12 323 9.7 11.3 0.00 0.00 0.00 39 1009.8
20260503213637 12 331 8.0 12.9 0.00 0.00 0.00 41 1009.9
20260503213133 12 312 16.1 17.7 0.00 0.00 0.00 40 1009.7
20260503212631 11 327 12.9 14.5 0.00 0.00 0.00 43 1009.9
20260503212128 11 291 8.0 11.3 0.00 0.00 0.00 42 1009.6
20260503211626 11 305 8.0 12.9 0.00 0.00 0.00 42 1009.8
20260503211121 11 282 11.3 14.5 0.00 0.00 0.00 43 1009.9
20260503210618 11 335 6.4 6.4 0.00 0.00 0.00 44 1009.8
20260503210115 10 333 14.5 17.7 0.00 0.00 0.00 44 1010.0
20260503205610 10 319 22.5 29.0 0.00 0.00 0.00 44 1009.8
20260503205107 10 351 14.5 16.1 0.00 0.00 0.00 44 1010.0
20260503204604 10 220 9.7 11.3 0.00 0.00 0.00 44 1009.7
20260503204101 10 271 11.3 14.5 0.00 0.00 0.00 43 1010.0
20260503203558 11 269 4.8 6.4 0.00 0.00 0.00 42 1009.8
20260503203055 11 232 8.0 11.3 0.00 0.00 0.00 41 1009.7
20260503202553 11 280 9.7 12.9 0.00 0.00 0.00 42 1009.8
20260503202051 11 241 8.0 11.3 0.00 0.00 0.00 40 1009.9
20260503201549 11 298 11.3 17.7 0.00 0.00 0.00 40 1009.9
20260503201046 11 321 12.9 17.7 0.00 0.00 0.00 41 1010.0
20260503200541 11 345 12.9 14.5 0.00 0.00 0.00 41 1009.9
20260503200038 11 328 6.4 6.4 0.00 0.00 0.00 42 1010.2
20260503195536 11 290 9.7 11.3 0.00 0.00 0.00 40 1010.2
20260503195032 11 304 11.3 14.5 0.00 0.00 0.00 39 1010.1
20260503194530 11 332 24.1 27.4 0.00 0.00 0.00 39 1010.1
20260503194029 11 306 9.7 14.5 0.00 0.00 0.00 40 1010.0
20260503193527 11 270 9.7 11.3 0.00 0.00 0.00 41 1010.1
20260503193021 11 37 4.8 4.8 0.00 0.00 0.00 39 1010.2
20260503192518 10 308 3.2 4.8 0.00 0.00 0.00 40 1010.3
20260503192014 10 4 9.7 11.3 0.00 0.00 0.00 39 1010.2
20260503191511 10 245 9.7 11.3 0.00 0.00 0.00 38 1010.4
20260503191008 11 313 8.0 11.3 0.00 0.00 0.00 39 1010.3
20260503190505 11 327 11.3 14.5 0.00 0.00 0.00 37 1010.1
20260503190002 10 309 4.8 6.4 0.00 0.00 0.00 45 1010.4
20260503185458 10 305 8.0 11.3 0.00 0.00 0.00 39 1010.4
20260503184957 10 292 12.9 14.5 0.00 0.00 0.00 40 1010.4
20260503184454 10 272 8.0 11.3 0.00 0.00 0.00 39 1010.3
20260503183951 10 224 6.4 6.4 0.00 0.00 0.00 40 1010.6
20260503183447 10 317 8.0 11.3 0.00 0.00 0.00 38 1010.6
20260503182944 11 306 8.0 9.7 0.00 0.00 0.00 39 1010.6
20260503182443 10 234 11.3 20.9 0.00 0.00 0.00 37 1010.7
20260503181940 10 331 8.0 11.3 0.00 0.00 0.00 42 1010.7
20260503181437 10 338 8.0 9.7 0.00 0.00 0.00 37 1010.8
20260503180933 10 305 12.9 16.1 0.00 0.00 0.00 38 1011.0
20260503180431 10 334 9.7 12.9 0.00 0.00 0.00 40 1010.8
20260503175928 10 272 19.3 25.7 0.00 0.00 0.00 36 1011.0
20260503175426 10 309 11.3 14.5 0.00 0.00 0.00 37 1010.9
20260503174922 10 244 12.9 17.7 0.00 0.00 0.00 36 1010.9
20260503174420 10 354 4.8 4.8 0.00 0.00 0.00 45 1011.1
20260503173920 10 313 9.7 12.9 0.00 0.00 0.00 43 1011.2
20260503173417 9 345 11.3 12.9 0.00 0.00 0.00 42 1011.4
20260503172913 9 2 9.7 9.7 0.00 0.00 0.00 43 1011.3
20260503172411 9 349 14.5 17.7 0.00 0.00 0.00 42 1011.5
20260503171907 10 9 12.9 16.1 0.00 0.00 0.00 39 1011.6
20260503171404 9 303 3.2 4.8 0.00 0.00 0.00 49 1011.5
20260503170901 8 344 17.7 20.9 0.00 0.00 0.00 41 1011.8
20260503170357 8 12 4.8 4.8 0.00 0.00 0.00 44 1011.9
20260503150750 7 302 4.8 4.8 0.00 0.00 0.00 48 1012.4
20260503150246 7 336 9.7 11.3 0.00 0.00 0.00 42 1012.4
20260503140210 6 334 14.5 17.7 0.00 0.00 0.00 45 1012.5
20260503131140 5 353 8.0 11.3 0.00 0.00 0.00 50 1012.4
20260503130637 5 292 11.3 12.9 0.00 0.00 0.00 52 1012.6
20260503130135 5 352 8.0 9.7 0.00 0.00 0.00 50 1012.7
20260503110527 2 305 6.4 9.7 0.00 0.00 0.00 79 1012.5